Flag for Poland Weather past 2 weeks in Poznan, Poland

Now
66 °F

Clear.


Feels Like: 66 °F
Forecast: 66 / 94 °F
Wind: 2 mph from East

Location: Poznan Airport

Current Time: Aug 31, 2015 at 7:02:04 AM

Latest Report: Aug 31, 2015 at 6:00 AM


Visibility: 10 mi

Pressure: 30.01 "Hg

Humidity: 73%

Dew point: 57 °F

Location of PoznanLocation

Historic Weather in Poznan — Graph

°F

Poznan temperature yesterday

Maximum temperature yesterday: 88 °F (at 5:30 PM)
Minimum temperature yesterday: 57 °F (at 5:30 AM)
Average temperature yesterday: 73 °F

Past Weeks' High & Low Weather Summary

 TemperatureHumidityPressure
High88 °F (Aug 27, 4:30 PM)100% (Aug 16, 5:00 AM)30.36 "Hg (Aug 16, 5:00 AM)
Low50 °F (Aug 29, 6:00 AM)21% (Aug 19, 5:00 PM)29.77 "Hg (Aug 25, 3:30 AM)
Average69 °F52%30.05 "Hg
* Reported Aug 16 5:00 AM — Aug 31 5:30 AM, Poznan, Weather by CustomWeather, © 2015

Note: Actual official high and low records may vary slightly from our data, if they occured in-between our weather recording intervals... More about our weather records

Advertising

Poznan weather history for previous 24 hours

 ConditionsComfort  
Time TempWeatherWind HumidityBarometerVisibility
5:30 AM
Mon, Aug 31
64 °FClear.5 mph78%30.01 "Hg10 mi
5:00 AM64 °FClear.2 mph78%30.01 "Hg10 mi
4:30 AM66 °FClear.5 mph73%30.01 "Hg10 mi
4:00 AM66 °FClear.2 mph73%30.01 "Hg10 mi
3:30 AM66 °FClear.2 mph73%30.01 "Hg10 mi
3:00 AM68 °FClear.2 mph69%30.01 "Hg10 mi
2:30 AM70 °FClear.2 mph64%30.04 "Hg10 mi
2:00 AM70 °FClear.5 mph64%30.04 "Hg10 mi
1:30 AM72 °FClear.3 mph61%30.04 "Hg10 mi
1:00 AM70 °FClear.3 mph64%30.04 "Hg10 mi
12:30 AM70 °FClear.1 mph64%30.07 "Hg10 mi
12:00 AM72 °FClear.1 mph61%30.07 "Hg10 mi
11:30 PM
Sun, Aug 30
72 °FClear.1 mph61%30.07 "Hg10 mi
11:00 PM72 °FPassing clouds.3 mph61%30.07 "HgN/A
10:30 PM73 °FClear.1 mph61%30.07 "Hg10 mi
9:30 PM73 °FClear.3 mph61%30.07 "Hg10 mi
9:00 PM75 °FClear.6 mph57%30.07 "Hg10 mi
8:30 PM77 °FSunny.6 mph54%30.07 "Hg10 mi
8:00 PM81 °FSunny.3 mph48%30.07 "Hg10 mi
7:30 PM82 °FPassing clouds.3 mph45%30.07 "HgN/A
7:00 PM84 °FPassing clouds.6 mph43%30.04 "HgN/A
6:30 PM86 °FSunny.8 mph38%30.09 "Hg10 mi
6:00 PM88 °FPassing clouds.7 mph35%30.09 "HgN/A
5:30 PM88 °FSunny.3 mph38%30.09 "Hg10 mi
5:00 PM86 °FSunny.3 mph40%30.07 "Hg10 mi
4:30 PM86 °FSunny.3 mph40%30.07 "Hg10 mi
4:00 PM86 °FPassing clouds.5 mph40%30.09 "HgN/A
3:30 PM86 °FSunny.5 mph40%30.09 "Hg10 mi
3:00 PM86 °FSunny.5 mph40%30.09 "Hg10 mi
2:30 PM86 °FPassing clouds.6 mph40%30.12 "HgN/A
2:00 PM84 °FPassing clouds.8 mph43%30.12 "HgN/A
1:30 PM84 °FPassing clouds.3 mph43%30.12 "HgN/A
1:00 PM84 °FPassing clouds.6 mph40%30.12 "HgN/A
12:30 PM82 °FSunny.3 mph42%30.12 "Hg10 mi
12:00 PM81 °FSunny.3 mph45%30.15 "Hg10 mi
11:30 AM77 °FSunny.2 mph51%30.15 "Hg10 mi
11:00 AM73 °FPassing clouds.3 mph57%30.15 "HgN/A
10:30 AM73 °FSunny.2 mph53%30.15 "Hg10 mi
10:00 AM72 °FSunny.1 mph53%30.15 "Hg10 mi
9:30 AM66 °FSunny.2 mph60%30.15 "Hg10 mi
9:00 AM66 °FSunny.3 mph60%30.15 "Hg10 mi
8:30 AM64 °FPassing clouds.5 mph60%30.15 "HgN/A
8:00 AM64 °FPassing clouds.5 mph56%30.15 "HgN/A
7:30 AM64 °FSunny.6 mph56%30.15 "Hg10 mi
7:00 AM63 °FSunny.3 mph56%30.15 "Hg10 mi
Weather by CustomWeather, © 2015

See weather overviewHow to use our weather pages